Weather History for KVRB - July, 2013

Change the Weather History Date:

Saturday, July 6, 2013

  Actual Average Record
Temperature  
Mean Temperature 82 °F 81 °F  
Max Temperature 88 °F 90 °F 98 °F (1998)
Min Temperature 76 °F 73 °F 69 °F (2008)
Degree Days  
Heating Degree Days 0 0  
Month to date heating degree days 0 0  
Since 1 June heating degree days 0 0  
Since 1 July heating degree days 0 0  
Cooling Degree Days 17 16  
Month to date cooling degree days 98 96  
Year to date cooling degree days 1510 1358  
Since 1 June cooling degree days 603 552  
Growing Degree Days 31 (Base 50)    
Moisture  
Dew Point 74 °F    
Average Humidity 79    
Maximum Humidity 94    
Minimum Humidity 63    
Precipitation  
Precipitation 0.00 in 0.18 in 3.45 in (1988)
Month to date precipitation 1.19 1.16  
Year to date precipitation 21.90 23.20  
Sea Level Pressure  
Sea Level Pressure 30.11 in    
Wind  
Wind Speed 9 mph (ESE)    
Max Wind Speed 18 mph    
Max Gust Speed 25 mph    
Visibility 10 miles    
Events      
T = Trace of Precipitation, MM = Missing Value Source: NWS Daily Summary

Daily Weather History Graph

Daily Weather History Graph

Search for Another Location

Airport or City:

Trip Planner

Search our weather history database for the weather conditions in past years. The results will help you decide how hot, cold, wet, or windy it might be!

Date:

Astronomy

Jul. 06, 2013 Rise Set
Actual Time 6:31 AM EDT 8:21 PM EDT
Civil Twilight 6:05 AM EDT 8:47 PM EDT
Nautical Twilight 5:33 AM EDT 9:19 PM EDT
Astronomical Twilight 4:59 AM EDT 9:52 PM EDT
Moon 5:12 AM EDT (7/6) 7:06 PM EDT (7/6)
Length of Visible Light 14h 42m
Length of Day
13h 49m
Waning Crescent, 2% of the Moon is Illuminated
Jul 6
Waning Crescent
Jul 8
New
Jul 15
First Quarter
Jul 22
Full
Jul 29
Last Quarter

Hourly Weather History & Observations

Time (EDT) Temp. Heat Index Dew Point Humidity Pressure Visibility Wind Dir Wind Speed Gust Speed Precip Events Conditions
12:53 AM 75.9 °F - 73.9 °F 94% 30.14 in 10.0 mi East 4.6 mph - N/A   Scattered Clouds
1:53 AM 75.9 °F - 73.9 °F 94% 30.13 in 10.0 mi ESE 5.8 mph - N/A   Partly Cloudy
2:53 AM 75.9 °F - 73.9 °F 94% 30.11 in 10.0 mi ESE 3.5 mph - N/A   Clear
3:53 AM 77.0 °F - 73.9 °F 90% 30.09 in 10.0 mi East 8.1 mph - N/A   Clear
4:53 AM 75.9 °F - 73.0 °F 91% 30.09 in 10.0 mi ESE 4.6 mph - N/A   Clear
5:53 AM 77.0 °F - 73.9 °F 90% 30.08 in 10.0 mi East 5.8 mph - N/A   Clear
6:53 AM 77.0 °F - 73.0 °F 88% 30.09 in 10.0 mi East 5.8 mph - N/A   Clear
7:53 AM 79.0 °F - 73.9 °F 84% 30.10 in 10.0 mi ESE 8.1 mph - N/A   Clear
8:53 AM 82.0 °F 87.9 °F 73.9 °F 76% 30.12 in 10.0 mi ESE 8.1 mph - N/A   Partly Cloudy
9:53 AM 84.0 °F 91.2 °F 73.9 °F 72% 30.13 in 10.0 mi SE 13.8 mph 20.7 mph N/A   Partly Cloudy
10:53 AM 84.9 °F 92.1 °F 73.9 °F 69% 30.14 in 10.0 mi ESE 12.7 mph - N/A   Scattered Clouds
11:53 AM 86.0 °F 95.1 °F 75.0 °F 70% 30.14 in 10.0 mi SE 16.1 mph 21.9 mph N/A   Scattered Clouds
12:53 PM 86.0 °F 93.8 °F 73.9 °F 67% 30.14 in 10.0 mi SE 12.7 mph - N/A   Scattered Clouds
1:53 PM 87.1 °F 95.4 °F 73.9 °F 65% 30.12 in 10.0 mi SE 16.1 mph 23.0 mph N/A   Clear
2:53 PM 87.1 °F 95.4 °F 73.9 °F 65% 30.12 in 10.0 mi ESE 15.0 mph - N/A   Scattered Clouds
3:53 PM 86.0 °F 95.1 °F 75.0 °F 70% 30.10 in 10.0 mi ESE 15.0 mph - N/A   Scattered Clouds
4:53 PM 84.0 °F 91.9 °F 75.0 °F 74% 30.09 in 10.0 mi East 13.8 mph - N/A   Scattered Clouds
5:53 PM 84.0 °F 91.2 °F 73.9 °F 72% 30.08 in 10.0 mi SE 16.1 mph 23.0 mph N/A   Clear
6:53 PM 84.0 °F 90.2 °F 73.0 °F 69% 30.08 in 10.0 mi SE 10.4 mph - N/A   Partly Cloudy
7:53 PM 81.0 °F 86.7 °F 75.0 °F 82% 30.09 in 10.0 mi ESE 8.1 mph - N/A   Clear
8:53 PM 80.1 °F 85.1 °F 75.0 °F 85% 30.10 in 10.0 mi East 4.6 mph - N/A   Mostly Cloudy
9:53 PM 80.1 °F 85.1 °F 75.0 °F 85% 30.12 in 10.0 mi ESE 4.6 mph - N/A   Mostly Cloudy
10:53 PM 78.1 °F - 75.0 °F 90% 30.13 in 10.0 mi SE 5.8 mph - N/A   Scattered Clouds
11:53 PM 77.0 °F - 75.0 °F 94% 30.14 in 10.0 mi Calm Calm - N/A   Partly Cloudy